Location: G�ndlingen
(48.0142°N, 7.6396°E)
Time: 17:28:46
(UTC+00:00)

Cosmos 158 Rocket - Pass Details

Date: 05 July 2020
Orbit: 698 x 794 km, 74.0° (Epoch: 12 August)

Event Time Altitude Azimuth Distance (km) Brightness Sun altitude
Exits shadow 22:52:53 20° 224° (SW) 1,580 5.3 -18.7°
Maximum altitude 22:56:06 56° 297° (WNW) 837 4.3 -18.8°
Drops below altitude 10° 23:00:56 10° 16° (NNE) 2,187 7.4 -18.9°
Sets 23:03:20 0° 20° (NNE) 3,121 8.2 -19.0°
